Location: *
(46.1866°S, 178.5290°W)
Time: 17:03:17
(UTC+00:00)

Lacrosse 5 - Pass Details

Date: 19 May 2021
Orbit: 715 x 724 km, 57.0° (Epoch: 15 June)

Event Time Altitude Azimuth Distance (km) Brightness Sun altitude
Rises 06:28:25 0° 236° (SW) 3,161 5.9 -20.6°
Reaches altitude 10° 06:31:01 10° 245° (WSW) 2,232 5.2 -21.0°
Maximum altitude 06:35:35 33° 308° (NW) 1,210 3.5 -21.8°
Drops below altitude 10° 06:40:06 10° 10° (N) 2,205 4.3 -22.6°
Enters shadow 06:42:04 - 18° (NNE) 2,905 4.9 -22.9°
